GOKTURK 1A

Last updated on Thu Nov 21 2024 00:02:27 GMT+0000 (Coordinated Universal Time)

1 41875U 16073A 24325.54240580 .00001055 00000+0 21649-3 0 9991 2 41875 98.1317 217.7208 0001436 79.1477 280.9886 14.62680948424966
UTC large
Height (km)
Speed (km/s)
/
Latitude / Longitude
Inclination (degrees)
Orbital Period (minutes)
Azimuth
Elevation
Range (km)
Doppler Factor

Next 0 passes for location: London (51.5072 / 0.1276)

Sorry there are no passes over London.